Regional Weather Roundup
Issued by NWS

Home | Current Version | Previous Version | Text Only | Print | Product List | Glossary Off
Versions: 1 2 3 4 5 6 7 8 9 10 11 12 13 14 15 16 17 18 19 20 21 22 23 24 25 26 27 28 29 30 31 32 33 34 35 36 37 38 39 40 41 42 43 44 45 46 47 48 49 50

000
ASUS43 KBIS 261120
RWRND

NORTH DAKOTA REGIONAL WEATHER ROUNDUP
NATIONAL WEATHER SERVICE BISMARCK ND
600 AM CDT TUE MAY 26 2015

NOTE: "FAIR" INDICATES FEW OR NO CLOUDS BELOW 12,000 FEET WITH NO
SIGNIFICANT WEATHER AND/OR OBSTRUCTIONS TO VISIBILITY.


NDZ001>003-009>011-017-261200-
NORTHWEST NORTH DAKOTA

CITY           SKY/WX    TMP DP  RH WIND       PRES   REMARKS
WILLISTON      CLEAR     46  44  93 SW3       29.92S
MINOT          CLEAR     57  46  66 W13       29.86R
MINOT AFB      PTCLDY    54  52  92 W8        29.85S
$$

NDZ018>021-031>035-040>046-261200-
SOUTHWEST NORTH DAKOTA

CITY           SKY/WX    TMP DP  RH WIND       PRES   REMARKS
BISMARCK       CLEAR     51  48  89 SW5       29.91R
DICKINSON      CLEAR     41  40  96 W6        29.94R FOG
GARRISON         N/A     54  47  77 W9        29.89S
HETTINGER ARPT FOG       38  37  97 CALM      29.97S VSB 1/4
$$

NDZ004>008-012>016-024-026-027-054-261200-
NORTHEAST NORTH DAKOTA

CITY           SKY/WX    TMP DP  RH WIND       PRES   REMARKS
GRAND FORKS    FAIR      54  50  86 S12       29.81R
GRND FRKS AFB  FAIR      53  50  90 S10       29.81R
DEVILS LAKE    MOCLDY    57  46  67 W9        29.81R
$$

NDZ022-023-025-028>030-036>039-047>053-261200-
SOUTHEAST NORTH DAKOTA

CITY           SKY/WX    TMP DP  RH WIND       PRES   REMARKS
FARGO          FAIR      49  47  93 S5        29.86S
JAMESTOWN      PTCLDY    52  50  93 S5        29.85R
$$




USA.gov is the U.S. government's official web portal to all federal, state and local government web resources and services.